Location: Albany
(35.0000°S, 118.0000°E)
Time: 05:23:43
(UTC-04:00)

Vanguard 3 - Visible Passes

Search period start: 31 July 2015 00:00
Search period end: 10 August 2015 00:00
Orbit: 508 x 3270 km, 33.3° (Epoch: 29 July)

Date Brightness Start Highest point End Pass type
(mag) Time Alt. Az. Time Alt. Az. Time Alt. Az.
31 Jul 11.2 12:54:41 13° E 12:54:41 13° E 12:56:00 10° E visible
31 Jul 9.7 14:59:20 58° NE 14:59:20 58° NE 15:14:11 10° ENE visible
31 Jul 10.0 17:03:59 30° WNW 17:11:31 44° NNW 17:29:18 10° NNE visible
01 Aug 10.6 13:50:27 29° ENE 13:50:27 29° ENE 13:57:27 10° ENE visible
01 Aug 9.6 15:55:06 55° NW 15:56:03 55° NNW 16:14:21 10° NE visible
01 Aug 10.6 17:59:45 12° W 18:11:53 27° NW 18:26:20 10° NNE visible
02 Aug 10.0 14:46:14 46° NE 14:46:14 46° NE 14:58:24 10° ENE visible
02 Aug 10.0 16:50:54 31° WNW 16:56:22 38° NNW 17:13:01 10° NNE visible
03 Aug 10.8 13:37:25 21° ENE 13:37:25 21° ENE 13:41:51 10° ENE visible
03 Aug 9.7 15:42:04 48° NNW 15:42:04 48° NNW 15:58:16 10° NE visible
03 Aug 10.6 17:46:43 13° WNW 17:56:47 22° NW 18:09:21 10° N visible
04 Aug 10.3 14:33:15 35° NE 14:33:15 35° NE 14:42:31 10° NE visible
04 Aug 10.1 16:37:55 30° NW 16:41:21 32° NNW 16:56:29 10° NNE visible
05 Aug 11.1 13:24:27 14° ENE 13:24:27 14° ENE 13:26:13 10° ENE visible
05 Aug 10.0 15:29:07 39° N 15:29:07 39° N 15:42:01 10° NE visible
05 Aug 10.7 17:33:47 12° WNW 17:41:50 18° NW 17:51:46 10° N visible
06 Aug 8.9 07:32:14 10° N 07:32:31 11° N 07:32:31 11° N visible
06 Aug 10.6 14:20:20 25° NE 14:20:20 25° NE 14:26:34 10° NE visible
06 Aug 10.3 16:25:00 26° NW 16:26:29 26° NNW 16:39:37 10° NNE visible
07 Aug 10.3 15:16:14 29° N 15:16:14 29° N 15:25:34 10° NNE visible
07 Aug 10.8 17:20:53 10° WNW 17:27:03 13° NNW 17:33:02 10° NNW visible
08 Aug 8.2 07:17:49 10° NNW 07:19:36 18° N 07:19:36 18° N visible
08 Aug 10.9 14:07:27 17° NE 14:07:27 17° NE 14:10:31 10° NE visible
08 Aug 10.5 16:12:07 21° NNW 16:12:07 21° NNW 16:22:21 10° N visible
09 Aug 9.3 08:15:17 10° NW 08:15:28 11° NW 08:15:28 11° NW visible
09 Aug 10.7 15:03:20 20° N 15:03:20 20° N 15:08:56 10° NNE visible
